Wind_Gust
30 32 38 41 37 35 29 27 25 10 16 18 24 23 19 24 20 19 17 15 15 24 21 22 22 21 21 21 20 22 22 23 24 23 23 21 20 23 22 19 18 16 16 15 16 16 16 17 19 15 16 17 18 17 17 16 16 15 16 16 17 15 14 13 14 13 12 13 16 17 18 18 16 17 14 16 16 15 14 14 14 14 14 14 14 15
29 31 35 31 26 28 29 27 18 12 13 19 23 25 20 20 22 17 21 17 11 19 23 20 23 19 21 20 19 21 22 23 23 24 23 23 22 21 22 24 20 16 17 19 17 17 18 16 17 18 19 16 17 16 18 18 16 15 14 15 16 15 13 13 13 14 13 13 14 16 17 17 15 15 15 15 15 14 15 15 15 14 13 13 13 13
36 41 31 28 24 26 27 25 18 16 16 15 22 24 24 21 24 18 17 17 18 22 26 22 23 20 18 19 19 20 20 21 21 23 24 23 22 23 23 22 23 25 20 18 18 18 19 16 19 20 20 19 19 17 20 16 16 16 16 16 15 15 14 14 13 14 16 15 16 16 17 16 17 16 16 16 15 15 16 17 16 16 15 14 14 12
33 33 26 27 24 25 25 23 22 18 17 19 21 26 26 25 25 24 19 18 18 22 28 24 26 18 15 17 19 18 19 20 17 20 21 22 23 24 23 21 23 24 19 18 17 14 15 16 18 20 19 19 17 19 18 17 16 15 15 16 16 15 14 15 15 16 17 19 19 19 19 17 17 17 16 15 15 15 16 18 17 17 16 15 15 14
30 21 23 25 24 25 27 26 26 25 22 20 19 22 22 25 20 21 26 26 26 24 26 27 24 19 19 21 22 17 19 20 19 21 21 20 21 24 21 20 20 23 19 20 16 17 15 19 17 16 18 17 17 17 17 16 16 17 16 16 15 16 15 15 15 16 18 20 19 20 20 18 17 14 12 14 16 15 16 17 18 18 17 18 17 16
26 20 22 27 26 26 27 29 31 27 24 22 14 16 15 20 23 27 28 28 28 26 26 29 28 22 21 22 22 19 20 18 19 23 23 22 25 25 21 19 20 23 21 21 17 15 16 19 15 14 16 19 18 19 17 15 15 16 17 16 16 17 17 16 13 13 13 16 19 20 19 16 15 14 15 17 15 14 15 16 15 17 19 19 18 18
25 22 26 28 29 29 28 28 27 26 24 22 29 15 15 21 25 27 28 27 29 31 30 25 28 24 20 22 24 22 19 19 19 22 22 24 25 23 22 24 23 25 24 21 18 19 19 18 16 13 16 18 19 16 15 16 18 17 17 16 16 16 16 15 13 11 12 13 15 15 16 15 14 16 15 13 13 13 14 13 14 16 16 18 19 18
23 27 26 27 29 32 30 31 31 30 24 25 22 20 14 19 23 24 23 24 22 16 25 23 25 25 26 25 23 23 21 19 19 21 23 26 23 24 23 22 22 26 25 26 23 21 21 20 17 16 17 17 19 17 15 16 15 18 18 17 16 16 16 15 14 15 14 15 15 16 16 17 16 14 14 12 13 13 13 15 15 14 16 17 19 19
26 27 28 30 29 33 33 26 24 28 28 21 20 21 18 18 19 20 22 20 19 24 27 28 20 27 26 24 23 23 21 20 21 23 25 25 26 23 22 22 20 23 25 26 26 23 23 21 19 17 18 17 17 16 17 17 15 15 15 16 16 18 16 16 16 16 16 15 15 14 15 17 16 14 14 12 12 12 13 13 14 15 15 17 18 20
24 26 25 25 29 31 23 24 25 28 29 17 20 19 17 15 16 18 20 19 20 25 25 26 27 31 27 27 26 25 25 28 28 26 27 26 27 25 24 20 21 22 23 23 23 23 23 23 21 18 19 18 18 16 15 16 16 15 16 18 19 18 17 17 17 18 18 17 15 16 16 16 15 13 13 12 13 13 12 14 14 15 16 17 18 19
21 19 22 28 32 23 22 20 25 29 19 21 20 21 20 18 18 14 14 19 20 25 26 25 26 29 27 27 29 31 32 33 31 27 24 26 26 27 22 22 24 23 23 24 23 22 22 22 23 20 20 19 18 17 17 16 16 15 18 18 20 17 17 17 18 19 19 17 17 17 17 17 16 14 13 13 15 15 15 16 17 17 18 18 20 19
23 25 28 30 19 22 21 23 24 26 21 24 28 27 24 19 16 19 17 14 24 27 23 24 27 22 29 29 29 28 21 28 33 33 32 31 31 28 24 23 21 21 23 25 25 24 24 23 22 21 21 20 19 17 17 17 16 17 17 18 19 18 18 18 19 19 19 19 19 18 18 19 17 15 16 16 16 16 17 16 16 16 17 18 20 20
28 27 22 20 15 22 29 23 26 26 24 28 28 28 29 28 28 28 28 26 28 26 19 22 24 23 28 15 30 32 27 29 31 32 34 32 31 27 24 23 22 21 22 25 24 26 24 24 25 23 21 20 17 18 15 16 15 16 16 17 21 20 19 20 19 20 19 19 18 18 18 17 17 17 16 17 18 16 17 17 17 17 18 19 21 22
24 22 23 20 22 26 27 34 34 32 32 31 35 34 33 33 32 27 29 24 27 17 13 20 18 25 15 16 16 29 28 27 28 28 30 30 28 26 24 23 22 21 22 23 24 24 23 23 22 22 20 20 20 17 17 16 16 16 16 16 21 21 19 19 19 19 19 19 18 17 17 16 16 17 18 18 18 17 17 17 18 19 20 20 20 20
31 29 31 30 31 28 33 30 29 25 33 34 25 33 30 26 35 27 31 32 30 23 20 17 22 24 24 18 11 13 25 24 27 26 27 26 26 25 25 25 23 22 21 24 23 23 23 23 21 23 23 22 22 20 17 16 17 17 18 18 21 21 20 20 19 19 19 19 18 18 17 17 16 17 19 19 18 18 18 19 20 21 20 21 20 21
25 19 24 27 13 30 29 26 25 25 27 29 28 25 29 31 17 25 12 18 28 26 25 27 24 11 18 13 11 11 20 25 28 28 27 27 26 27 28 28 28 26 24 23 24 24 22 23 22 23 24 22 20 20 18 17 17 17 18 18 20 21 19 19 19 18 19 19 19 18 19 18 18 19 19 20 20 21 20 21 21 22 21 21 19 19
30 22 28 27 11 29 26 25 26 29 36 33 31 35 28 18 17 15 10 17 14 15 23 21 21 12 15 17 13 18 24 26 27 29 30 29 28 27 28 27 27 26 25 25 25 25 25 23 22 22 21 22 21 21 20 19 18 18 19 19 20 20 19 19 18 18 18 19 20 20 19 19 20 21 21 21 20 20 21 21 22 22 22 20 19 17
26 23 27 26 25 26 25 25 23 29 21 29 35 28 18 14 13 23 20 14 21 25 19 23 25 22 24 21 18 21 25 27 30 31 30 29 29 30 28 26 27 26 25 24 24 24 25 24 24 22 21 20 19 18 19 19 18 18 18 19 20 20 20 18 18 18 18 19 20 20 20 21 21 21 21 20 21 21 22 21 22 21 22 20 18 17
19 26 26 22 21 24 23 24 25 26 24 23 27 24 35 27 22 26 21 24 28 25 21 22 22 25 29 20 25 27 30 30 31 32 33 33 32 31 28 26 26 25 26 27 27 28 26 26 25 23 22 22 20 19 19 20 19 19 18 18 20 21 19 18 17 17 18 18 20 21 21 20 21 21 21 21 22 22 23 23 23 22 20 18 18 18
17 21 26 23 24 26 25 30 33 33 19 15 18 30 27 19 25 27 30 15 25 21 16 21 24 27 29 23 32 33 34 38 36 35 36 37 35 33 30 31 31 30 28 28 29 28 28 27 24 24 24 23 22 21 20 20 20 20 20 19 20 21 19 19 18 18 19 19 20 21 21 20 21 21 22 22 23 24 23 22 21 20 19 19 18 18
21 13 26 29 18 28 34 38 31 32 34 34 28 30 32 26 14 19 25 29 25 23 21 19 20 23 23 26 34 36 39 39 41 41 39 36 35 32 29 31 31 29 28 28 27 28 28 28 25 24 23 24 23 22 20 21 21 21 21 20 20 21 20 19 18 18 18 19 20 20 20 21 21 21 22 22 22 22 21 21 20 20 18 19 19 18
22 20 21 32 27 30 24 25 24 26 28 31 30 30 27 28 24 27 23 22 25 26 22 21 19 18 21 25 33 33 34 37 38 35 34 33 35 33 32 30 31 29 27 27 26 27 28 27 26 24 24 24 24 22 21 21 21 20 20 20 20 20 20 19 19 19 19 18 20 19 21 21 19 20 21 21 21 22 22 21 21 19 19 19 19 18
13 22 20 25 27 25 18 22 25 20 25 26 29 30 28 26 26 29 25 23 25 24 11 15 15 14 14 10 22 25 28 31 30 30 29 28 30 30 31 31 29 29 29 29 27 28 28 26 26 26 25 24 22 22 22 21 21 21 19 19 18 20 19 19 20 19 19 20 20 20 20 20 20 20 20 21 21 22 22 21 21 20 20 20 19 18
7 26 20 24 21 22 14 11 16 17 20 27 30 27 28 31 29 25 23 20 29 22 23 16 17 14 12 11 11 16 22 27 26 27 27 28 27 29 31 30 29 27 27 28 26 26 27 26 25 26 25 25 23 22 21 22 22 21 20 20 20 21 20 20 20 20 21 21 22 20 20 21 21 21 20 22 22 21 20 21 20 20 21 20 19 19
25 21 21 23 26 25 20 20 23 24 27 30 28 30 25 23 23 22 19 16 23 27 27 24 29 18 15 11 16 19 23 27 27 24 27 28 26 28 29 29 27 27 28 26 27 28 27 26 26 26 26 25 24 23 22 22 21 22 21 20 20 20 19 20 20 21 22 22 22 21 21 20 20 21 21 21 21 21 20 20 20 20 21 19 20 19
17 16 24 27 29 31 35 35 35 31 32 26 22 25 26 27 25 25 24 21 25 18 25 30 23 16 12 12 21 24 26 25 23 24 22 26 26 27 27 27 27 28 29 29 30 28 27 28 27 26 24 25 24 24 24 22 22 22 22 20 18 20 20 20 20 21 22 21 22 22 21 20 20 21 21 21 20 20 20 20 20 20 19 20 20 19
16 14 23 18 23 22 19 15 12 18 25 33 25 25 26 26 26 24 22 24 26 17 23 23 21 16 14 20 27 28 31 29 27 28 29 27 28 28 26 26 27 28 29 30 29 29 28 26 25 25 24 25 24 23 24 23 23 23 22 21 20 20 20 20 20 21 21 21 20 21 20 20 20 20 20 20 19 19 20 20 20 21 21 20 20 21
16 18 21 13 10 13 14 13 13 19 24 24 22 25 25 26 27 27 29 28 18 20 25 24 18 19 21 26 29 31 29 27 26 28 28 29 31 31 28 26 23 27 27 29 28 30 30 29 26 24 25 25 25 25 23 22 23 23 22 21 21 20 20 19 20 21 21 21 21 21 20 19 19 19 19 19 19 19 19 20 20 20 20 20 21 22
21 15 16 17 12 9 9 12 11 14 19 23 27 23 27 27 27 32 29 24 19 22 18 18 20 23 22 32 36 38 40 41 38 35 31 29 28 27 28 29 29 30 30 29 28 25 26 28 27 26 26 26 25 25 24 24 23 21 21 21 21 20 21 20 21 22 21 21 21 20 19 18 18 18 18 18 19 19 20 20 19 20 20 20 20 20
21 19 15 20 13 11 9 9 9 11 13 15 20 25 25 27 29 30 27 26 26 21 18 21 22 23 20 29 35 32 26 26 27 28 30 32 32 31 32 32 31 31 31 29 26 26 27 28 27 26 26 25 26 25 24 23 22 22 22 21 21 20 21 21 21 22 22 22 21 20 20 19 18 18 18 18 19 19 19 19 19 19 20 20 20 19
20 16 12 18 18 17 11 9 10 11 11 15 18 21 24 26 27 28 28 27 24 25 18 15 21 22 13 15 26 24 26 25 27 31 33 33 33 33 33 33 32 32 31 30 30 29 28 28 27 25 25 25 25 25 24 22 21 21 21 21 21 21 21 21 22 21 22 22 21 21 20 19 18 18 19 18 19 18 20 20 19 20 20 19 19 19
22 11 14 18 17 17 14 12 10 9 12 16 18 19 22 22 25 27 35 26 25 25 21 18 22 24 17 22 25 28 29 33 34 34 34 36 36 35 35 35 34 33 33 30 30 29 30 29 27 27 26 26 24 24 23 22 22 22 21 21 21 22 22 22 22 22 22 22 21 20 19 18 18 18 19 18 19 19 20 20 20 20 20 19 19 19
26 18 14 16 19 16 13 9 10 11 15 19 20 21 19 18 19 16 14 15 25 24 23 23 26 20 26 31 32 31 33 33 31 33 35 34 36 37 37 36 35 34 32 34 32 30 31 30 28 27 26 25 26 24 22 24 24 23 22 22 21 22 22 23 23 22 21 20 19 18 17 17 18 19 19 19 19 19 20 20 20 20 19 20 18 18
23 21 16 18 21 15 14 11 9 17 21 20 13 12 11 17 20 22 23 21 20 24 24 19 21 24 30 34 37 35 36 42 44 40 36 40 40 37 36 35 35 34 34 34 34 33 30 27 26 25 24 23 23 23 23 22 23 23 22 23 23 23 23 23 22 22 22 21 20 20 19 19 20 19 19 19 19 19 20 20 20 18 18 18 18 19
21 22 18 16 18 18 15 12 16 21 22 13 9 10 9 10 12 21 14 19 23 22 10 12 17 31 37 40 41 43 39 30 26 32 34 34 34 35 37 36 36 35 36 35 34 31 28 28 27 26 24 23 23 23 24 24 24 24 24 23 24 23 24 24 24 22 21 21 20 20 20 20 19 19 19 19 19 19 20 19 18 18 18 18 19 19
20 23 17 16 17 9 14 21 24 20 11 10 9 8 9 8 8 10 13 16 18 22 23 25 19 18 22 22 19 21 27 27 26 27 30 31 33 36 37 38 37 35 37 37 34 31 30 29 30 28 26 25 25 25 24 25 25 25 24 24 24 24 25 25 24 23 21 20 19 20 20 20 19 19 19 19 19 19 19 18 17 17 17 17 18 19
21 23 22 19 15 18 17 19 21 11 10 12 10 14 23 16 20 21 18 23 26 27 26 22 18 22 24 22 24 24 25 26 26 25 29 34 36 36 38 33 34 34 34 33 34 33 31 30 29 28 28 26 26 27 26 26 26 25 25 25 25 25 25 24 23 22 21 20 20 20 20 20 20 19 19 19 19 18 18 17 17 16 15 17 18 18
18 24 21 20 17 18 17 22 25 21 21 14 11 12 19 11 10 9 12 13 21 25 24 21 23 26 25 26 28 26 24 27 25 30 33 37 38 36 37 32 34 35 35 34 30 30 30 28 28 28 29 27 26 25 27 27 26 26 25 25 25 25 24 23 23 22 21 20 20 20 20 20 20 19 18 18 19 17 16 16 16 16 14 17 17 18
17 20 17 22 14 19 21 23 27 24 21 7 12 13 16 12 11 13 12 19 24 27 29 26 25 29 32 37 34 33 34 32 33 35 40 41 40 39 36 33 34 33 34 34 34 32 30 31 30 29 27 28 28 27 27 27 27 27 26 26 26 25 24 23 23 22 22 21 21 20 20 20 19 19 18 18 17 16 16 16 15 14 14 14 16 16
20 19 17 24 15 19 21 24 24 23 19 12 13 13 15 13 10 12 15 19 15 28 30 28 30 34 32 34 39 43 40 34 36 34 36 40 36 34 36 34 34 34 34 35 35 35 33 30 30 28 29 28 26 27 28 28 28 26 27 26 25 25 24 24 23 23 22 22 21 20 20 19 18 17 18 18 16 15 15 14 14 14 14 14 16 17
22 19 20 23 22 18 17 24 24 19 14 11 12 15 15 12 12 14 22 11 10 20 25 26 28 31 36 38 40 41 31 17 17 23 36 37 36 34 30 31 32 34 34 32 32 27 32 34 34 34 31 29 28 28 29 29 28 28 26 26 26 25 25 24 24 24 23 22 21 21 20 19 17 17 16 16 16 14 14 13 13 13 14 15 16 15
17 16 17 17 22 24 23 27 24 14 13 15 14 15 14 14 13 20 13 9 13 21 21 24 30 32 36 38 37 18 16 16 22 30 36 38 36 31 31 32 34 33 34 33 31 30 31 32 29 30 29 27 30 29 29 29 29 28 28 26 26 25 25 25 25 24 23 22 22 20 19 18 17 15 15 15 14 14 14 13 12 13 13 14 14 14
21 22 21 24 21 19 15 22 21 27 12 17 21 13 9 10 9 12 11 10 10 17 20 19 23 26 27 29 23 16 21 23 28 32 33 36 35 35 34 34 35 35 35 35 34 32 34 32 33 33 29 29 29 29 29 29 28 28 27 27 26 27 26 25 25 24 23 22 21 20 19 18 16 14 14 13 12 13 13 12 12 12 12 11 11 13
13 19 20 19 21 25 25 29 26 10 15 25 25 14 20 11 14 11 10 12 13 18 21 19 18 22 24 25 24 21 23 28 30 32 34 36 35 36 35 32 31 32 32 32 34 34 32 34 33 31 28 30 28 29 29 31 30 29 27 28 27 26 26 25 24 24 22 21 21 20 19 19 17 15 14 13 13 12 12 11 10 11 11 11 12 13
12 15 14 15 16 24 20 15 17 10 13 17 11 13 13 11 12 11 12 11 18 18 17 20 20 22 23 22 22 23 25 27 30 32 35 37 38 38 36 35 36 35 34 33 33 34 33 36 33 31 30 30 29 28 29 30 30 29 28 28 27 27 27 25 24 23 22 21 21 19 19 17 17 15 14 14 12 12 12 11 8 9 10 9 11 12
9 9 8 13 14 10 11 9 8 9 11 13 9 12 11 10 9 11 10 12 10 14 19 21 22 24 22 24 27 24 25 27 30 30 32 34 35 33 34 35 34 34 34 34 34 35 34 34 32 32 32 30 30 29 29 29 30 30 29 28 27 27 26 25 24 23 22 22 20 19 19 18 16 15 14 11 11 9 9 9 8 8 9 8 10 11
9 10 12 18 12 10 19 12 9 8 9 12 13 9 8 9 9 10 10 8 11 15 15 14 20 22 24 25 24 25 27 28 30 29 30 32 34 34 35 36 35 35 36 36 36 35 35 32 34 35 33 32 30 30 29 28 30 30 28 29 28 27 26 24 24 22 21 21 20 18 18 17 17 16 15 12 11 11 10 9 8 8 7 7 9 10
15 11 15 15 13 16 9 11 9 8 11 10 15 14 11 10 8 8 9 9 9 14 16 18 20 22 23 24 24 27 29 29 31 31 30 31 32 34 34 35 35 34 34 34 36 36 34 35 35 36 35 34 32 30 30 30 31 30 29 29 28 27 26 24 23 23 21 21 19 19 17 17 7 11 16 14 12 12 11 9 8 8 9 11 11 10
14 12 12 12 20 15 13 12 10 11 13 14 16 14 10 8 9 10 9 10 13 16 17 18 21 24 25 24 26 28 29 28 29 31 31 31 32 32 33 34 34 35 35 35 35 34 36 35 36 36 34 33 31 30 30 29 29 30 30 29 28 27 26 24 21 21 20 20 19 18 17 16 19 15 13 14 12 10 9 8 8 8 12 11 13 13
14 18 13 12 16 17 17 14 8 14 11 15 14 16 17 14 11 12 12 14 16 18 21 22 20 20 22 25 28 30 31 30 29 31 31 32 32 31 31 33 33 34 35 34 34 33 33 33 35 36 34 32 31 30 30 29 29 29 31 29 28 27 25 24 24 21 21 20 19 18 18 16 17 15 13 13 14 14 13 8 7 10 13 14 9 9
15 11 15 15 13 11 15 12 10 10 10 12 10 10 12 14 14 16 17 18 18 19 22 24 24 22 23 24 26 31 31 33 31 30 31 31 33 33 34 34 35 34 35 34 34 34 34 34 33 34 33 32 30 30 29 29 28 29 30 28 27 27 25 25 23 21 21 20 19 18 18 16 15 15 14 13 12 13 14 16 13 6 9 8 6 5
Wind_Speed
13 14 16 19 17 19 17 16 15 2 6 10 14 13 8 11 8 9 8 7 7 11 10 10 11 11 12 12 11 11 10 11 13 12 11 11 9 10 11 10 10 6 4 4 6 6 9 9 7 5 6 9 11 6 9 9 8 8 8 9 8 7 7 6 5 4 4 4 6 6 7 7 7 7 7 7 7 7 6 6 7 7 6 7 7 7
14 14 17 18 16 17 18 16 10 3 6 10 12 14 8 10 9 8 11 8 3 8 8 8 10 9 11 10 10 11 12 13 13 13 12 12 11 9 12 15 12 9 6 9 10 9 8 3 8 7 7 5 8 9 11 10 7 6 7 8 8 6 6 5 5 6 5 4 4 5 7 7 6 6 7 7 7 6 6 6 6 6 6 6 6 6
16 19 16 18 14 15 16 16 10 8 8 8 9 11 10 7 11 9 9 9 8 9 9 10 10 8 9 8 10 11 11 10 10 11 13 14 13 11 11 12 13 11 8 8 9 12 9 10 8 5 8 9 9 8 10 9 9 8 8 7 7 6 6 6 6 5 6 7 6 6 7 7 6 6 7 7 7 6 6 6 6 6 6 5 5 4
14 15 16 17 14 15 15 13 13 8 8 8 9 11 11 12 11 9 9 9 9 7 12 12 11 7 8 9 9 8 7 7 8 11 12 12 12 12 13 12 11 11 9 10 10 10 5 8 5 5 8 7 3 9 9 9 9 7 7 8 8 7 7 7 7 7 9 10 10 10 9 8 7 7 7 7 7 6 6 6 6 6 5 6 6 7
14 11 13 15 14 15 16 16 14 10 9 9 10 9 8 14 9 10 11 11 9 10 14 15 9 7 8 8 8 7 8 8 9 12 11 10 10 11 10 9 10 12 10 9 10 12 9 4 6 4 5 3 5 8 9 8 7 7 9 9 8 7 7 7 8 8 9 10 9 9 10 9 9 7 5 5 5 5 6 6 6 6 6 6 6 7
14 11 13 16 16 15 15 15 17 13 10 9 7 8 7 11 11 14 16 15 11 10 12 16 9 7 9 9 7 8 9 10 10 12 12 11 10 12 11 10 11 12 11 11 11 9 10 8 6 4 7 7 8 9 8 8 7 9 9 9 8 7 7 7 7 7 6 7 8 9 8 7 6 6 5 5 5 5 5 5 6 7 7 8 7 7
10 11 15 17 17 17 17 14 17 15 10 9 12 3 7 12 14 16 17 14 12 12 14 13 12 7 6 11 12 10 10 11 10 12 13 12 11 11 10 11 12 14 13 12 11 12 12 10 8 7 6 7 10 9 8 8 9 9 9 9 8 7 7 6 5 5 4 4 4 4 5 4 6 6 6 5 5 4 4 4 5 6 7 8 7 7
10 16 15 16 17 17 15 14 16 17 10 8 12 11 6 11 13 14 12 11 9 8 12 10 8 7 8 9 12 12 11 11 11 13 13 13 12 11 10 12 12 14 15 15 14 13 13 13 10 8 6 7 9 8 7 7 8 10 10 9 8 7 7 6 5 6 5 5 5 6 6 5 5 5 6 5 5 4 4 4 4 4 5 6 6 7
13 14 17 18 17 15 15 13 15 17 11 7 12 12 9 9 10 11 10 8 6 9 10 11 10 10 9 10 11 11 11 10 12 14 14 15 14 11 12 12 11 11 15 16 15 14 14 13 12 10 10 9 9 9 9 9 8 8 8 9 9 9 8 8 7 6 6 6 5 4 5 5 5 5 5 4 4 4 3 4 4 4 4 6 7 8
9 14 15 15 14 13 12 13 14 17 13 8 11 11 8 7 8 9 8 7 8 10 11 13 13 10 11 11 10 12 12 14 14 15 16 16 16 14 12 12 12 12 12 12 14 14 14 14 13 11 11 10 9 8 8 8 8 8 7 9 9 9 8 8 9 8 7 5 4 4 4 5 4 4 4 3 3 3 3 4 4 4 4 5 6 7
9 11 12 11 14 11 12 10 14 17 10 11 10 11 9 8 7 5 5 7 7 9 11 15 15 14 8 10 12 13 13 16 15 13 13 15 15 14 13 13 11 12 12 12 13 13 14 13 14 12 12 11 10 8 9 8 9 7 8 9 10 9 8 9 9 10 9 7 6 5 6 6 5 4 4 4 3 4 3 4 4 4 5 5 6 6
12 14 13 11 11 9 10 11 13 16 10 13 10 11 10 7 6 7 5 5 8 9 11 14 15 12 12 12 12 13 11 16 17 19 20 19 19 16 14 12 11 11 11 13 13 13 14 14 14 13 13 11 11 10 9 9 8 8 8 9 11 9 9 8 9 9 9 8 8 8 8 7 6 5 5 5 5 5 5 4 4 5 5 6 6 7
13 12 11 11 6 11 14 11 12 14 12 13 13 12 13 9 7 8 10 9 10 8 8 12 13 10 12 5 15 17 14 16 17 16 19 20 19 17 14 13 12 11 12 12 13 14 13 14 14 14 13 12 10 10 8 8 8 8 8 9 10 9 9 9 9 10 10 9 8 8 8 8 7 7 7 6 6 5 5 5 6 6 6 6 7 7
10 12 13 10 12 12 14 14 13 13 14 15 15 15 14 12 12 10 11 7 9 5 4 9 10 9 6 6 8 17 15 15 16 16 17 17 17 15 14 13 12 12 12 11 12 13 12 11 12 13 12 11 10 10 9 9 8 7 8 9 10 9 9 9 10 10 10 9 8 8 7 7 6 7 7 6 6 6 6 6 6 6 6 6 7 7
13 12 13 16 11 15 16 14 14 11 15 15 13 14 13 9 9 9 10 11 12 8 8 8 7 8 11 5 2 4 15 13 14 13 16 16 15 14 13 13 14 13 12 12 12 12 13 13 13 13 13 12 12 12 9 8 9 9 9 9 10 10 9 9 9 9 10 8 8 8 7 6 6 7 6 6 6 7 7 7 7 6 6 6 6 7
14 6 12 15 6 17 16 14 13 14 12 13 12 11 12 12 6 9 2 7 11 9 9 11 6 0 2 2 2 2 9 14 14 15 16 17 15 15 14 14 14 13 12 12 13 13 14 14 13 12 13 12 11 11 9 10 9 9 9 10 10 10 9 9 9 9 8 8 8 8 8 8 7 6 6 7 7 7 7 7 7 7 6 6 7 7
12 7 17 15 4 16 15 14 12 14 11 13 13 14 12 9 7 4 3 9 6 5 7 6 6 3 5 6 4 7 11 14 15 16 17 18 16 16 14 15 16 14 14 14 14 14 15 14 13 12 12 11 11 11 11 10 10 10 10 10 10 9 9 9 9 9 9 8 8 8 8 8 8 8 8 8 9 8 8 7 7 6 7 7 6 6
10 8 16 13 14 14 15 10 11 14 8 10 12 11 6 2 2 7 5 3 7 9 4 10 12 9 9 6 7 12 13 14 16 17 17 17 17 17 15 15 15 15 14 15 14 15 15 14 14 13 11 11 11 11 11 11 10 9 9 10 10 9 9 9 8 8 8 9 9 9 9 9 8 8 8 8 8 7 7 6 6 6 6 7 6 6
6 10 11 13 11 13 13 12 13 14 15 8 11 11 11 10 7 10 4 10 11 9 6 9 12 10 12 7 11 14 16 17 19 18 19 19 19 18 17 16 16 15 14 14 15 15 14 14 14 13 13 13 12 11 11 11 10 10 10 10 10 10 9 9 7 7 7 7 7 7 8 9 8 8 8 8 9 8 8 8 7 7 7 7 7 7
6 6 9 11 13 14 12 12 13 14 9 7 8 13 12 7 10 10 7 5 8 8 6 9 12 8 11 8 16 18 20 22 22 20 21 21 21 18 17 17 17 17 14 14 15 15 15 14 14 15 14 13 13 12 11 11 10 11 11 11 10 10 8 9 9 8 8 8 8 8 8 9 8 9 9 8 8 7 8 8 8 8 8 8 7 8
6 2 9 11 11 15 12 13 13 14 15 14 11 11 12 8 2 7 9 10 8 7 7 6 7 7 8 9 15 19 22 22 23 24 22 20 20 20 18 18 17 17 16 15 15 15 16 15 15 15 14 14 13 12 11 11 11 11 10 11 10 10 9 9 8 8 8 8 9 10 10 10 10 10 9 9 9 9 8 8 8 8 7 8 8 8
5 7 8 13 10 12 10 12 14 15 14 14 12 11 12 12 9 11 8 8 9 8 6 7 6 7 9 10 13 18 19 20 23 21 20 20 21 19 17 19 18 16 17 17 15 16 16 16 15 14 14 13 13 12 12 11 10 11 11 10 10 9 8 8 8 8 9 8 9 10 10 10 9 9 9 10 9 9 9 8 8 7 8 8 8 8
3 7 7 10 11 10 9 13 15 11 13 14 13 13 13 12 10 10 9 9 8 8 3 6 5 4 4 2 11 13 13 15 17 18 16 16 19 18 18 19 18 18 18 17 16 15 15 15 15 15 15 15 13 13 12 11 11 10 10 10 9 9 9 8 8 9 8 9 10 11 10 10 10 9 10 10 9 10 9 8 8 7 8 7 7 7
2 6 7 9 9 11 5 3 9 8 10 14 15 13 13 13 14 11 9 7 11 10 7 4 3 4 2 3 1 7 10 11 13 16 14 12 12 16 19 19 18 17 17 17 15 14 14 14 15 15 15 14 13 12 11 11 11 10 10 10 9 10 10 10 8 9 10 10 11 10 10 10 10 10 10 10 9 10 9 8 8 8 8 7 7 7
5 7 8 9 8 8 8 9 9 12 10 10 11 13 13 11 13 12 9 4 7 13 14 9 9 4 5 3 6 6 11 13 14 12 13 15 15 16 18 17 16 17 16 16 17 16 16 16 16 15 14 13 13 12 11 11 11 11 11 10 10 10 9 9 9 10 11 11 11 11 11 11 10 10 10 10 9 9 9 8 8 7 8 8 8 8
6 6 9 10 12 12 13 14 13 13 14 9 10 12 15 15 15 12 9 7 7 8 14 11 7 5 4 3 11 12 10 12 13 13 12 15 15 16 16 16 15 16 17 18 19 17 17 16 15 14 14 13 13 12 12 11 11 11 11 10 9 10 10 10 10 10 11 10 11 11 11 10 10 10 10 9 9 9 8 8 8 8 7 8 8 8
3 5 10 7 9 8 7 6 4 9 10 13 14 15 15 15 15 13 9 9 9 7 9 11 11 6 6 9 13 16 14 15 16 16 16 16 17 16 16 13 15 15 17 19 19 16 16 16 16 15 15 14 14 13 12 11 12 12 11 11 10 10 10 10 10 10 11 10 10 10 10 10 9 9 9 8 8 8 8 8 8 8 8 8 8 8
5 6 11 7 4 3 1 5 6 10 12 13 13 14 14 15 16 15 11 10 7 8 9 10 10 8 9 13 15 17 15 16 15 16 17 16 18 18 16 16 17 16 17 17 17 19 19 18 16 15 15 15 14 13 12 11 11 12 11 11 10 10 9 8 10 11 11 11 10 10 10 9 9 8 8 8 8 8 8 8 8 8 7 8 8 8
8 4 9 9 5 2 3 5 4 6 10 12 15 14 16 16 17 18 15 14 11 8 5 10 11 13 11 15 18 20 21 22 20 19 17 16 16 16 17 18 18 19 19 18 18 16 17 18 16 16 16 15 15 15 14 12 12 11 10 10 10 10 10 10 11 11 11 10 10 10 9 9 8 8 8 8 8 8 8 8 8 8 8 8 8 7
6 7 7 11 6 4 3 3 2 3 6 7 11 15 15 17 18 17 16 16 14 10 9 7 12 13 11 13 16 17 15 14 15 15 16 19 20 19 19 20 20 19 20 19 17 15 16 17 17 17 16 15 15 15 13 12 11 11 11 11 10 10 10 10 11 11 11 11 11 10 9 9 8 8 8 8 8 8 8 8 8 8 8 8 8 8
7 5 6 9 7 7 5 2 3 3 3 7 10 12 15 16 16 17 16 17 16 14 11 7 10 11 3 3 12 12 13 12 13 18 20 20 20 21 21 20 20 20 20 19 19 19 18 17 17 15 15 15 15 15 13 12 11 11 11 10 10 10 10 10 11 11 11 11 11 10 9 9 8 8 8 8 8 8 8 8 7 8 8 8 8 8
10 2 5 7 6 7 7 5 4 4 5 8 10 11 13 14 15 15 14 14 14 14 13 11 11 10 6 6 11 14 16 18 20 21 20 19 21 22 21 21 20 19 20 19 18 18 19 18 17 17 16 15 15 14 13 12 11 11 11 11 11 10 11 11 11 11 11 11 10 10 9 8 8 8 8 8 9 9 8 8 8 8 8 8 9 8
11 5 4 5 7 6 6 4 4 5 7 9 10 11 11 11 11 9 7 8 14 13 12 11 11 9 10 13 15 14 16 18 18 19 19 20 21 22 22 20 19 19 19 17 19 19 19 18 17 17 16 15 14 13 13 13 12 11 11 11 11 10 11 11 11 11 11 10 10 8 8 9 9 8 8 8 9 8 8 8 8 8 8 8 8 8
12 10 5 7 6 5 7 5 3 6 9 6 4 5 3 9 11 13 11 11 12 13 9 8 10 8 15 15 17 18 18 21 23 22 20 19 20 21 21 21 21 21 20 19 20 20 19 15 14 13 14 14 14 14 13 12 12 11 11 12 12 12 12 12 11 10 10 10 10 10 9 10 10 8 8 8 8 8 8 8 8 7 7 7 7 8
11 10 6 6 5 6 7 5 6 10 7 5 2 3 1 2 5 12 8 12 14 13 4 4 5 11 16 17 19 21 22 17 13 16 19 19 20 20 23 23 22 22 22 22 21 20 18 17 16 15 15 14 14 13 13 13 12 12 12 12 12 12 12 12 12 10 10 10 10 10 9 10 9 9 9 9 8 8 8 8 7 7 7 7 7 7
8 9 5 4 5 2 4 7 8 6 4 4 3 2 3 1 1 3 6 8 10 13 14 14 11 9 10 9 8 8 10 12 13 14 17 18 19 20 22 22 23 22 23 21 22 19 18 17 18 17 16 14 14 13 13 13 13 13 13 12 12 13 13 13 12 12 10 10 9 9 9 10 9 9 9 9 9 8 8 7 7 7 6 6 6 6
12 10 7 6 4 5 5 8 7 5 2 5 3 6 9 6 9 10 6 11 16 15 15 12 9 8 10 10 10 10 11 11 11 11 14 17 21 22 22 21 22 21 21 21 21 20 19 18 17 17 16 16 15 15 14 14 14 13 13 13 13 13 13 12 12 11 10 10 9 10 10 10 9 9 9 8 8 8 7 7 7 6 5 6 6 6
9 10 8 8 4 6 6 8 8 7 8 5 4 5 10 2 4 3 4 4 12 15 14 12 11 12 12 12 13 13 14 11 10 13 18 20 22 23 23 20 21 22 21 21 19 18 19 17 17 17 16 17 16 15 15 15 14 14 13 13 13 13 12 12 12 11 10 10 10 10 10 9 9 9 9 8 8 7 7 6 6 6 5 6 6 6
9 10 8 9 4 7 8 9 9 9 6 1 5 6 9 4 4 6 4 7 11 16 17 15 14 14 15 16 16 16 13 11 12 14 19 24 23 22 21 20 21 20 21 21 21 20 19 18 19 18 17 17 17 16 16 16 16 14 14 14 13 13 13 12 12 11 11 11 10 10 10 9 9 9 8 8 8 7 7 6 5 5 4 5 5 6
10 7 5 8 6 6 8 8 9 5 3 5 7 6 7 5 2 4 5 5 6 11 16 16 16 17 15 16 18 17 15 12 12 11 18 23 23 22 22 20 20 21 21 21 21 22 21 19 18 18 18 17 16 17 17 16 15 15 14 14 13 13 13 12 12 12 11 11 10 10 9 9 9 8 8 8 7 6 6 5 5 5 5 5 5 6
8 7 8 10 8 7 10 8 6 4 4 5 5 7 7 5 3 5 8 2 2 7 11 12 15 17 18 18 17 15 14 2 6 11 22 21 21 21 19 19 20 20 21 20 19 19 18 19 19 19 19 16 16 16 17 15 15 15 14 14 14 14 13 13 12 12 12 11 10 10 10 8 8 8 8 7 6 5 5 5 5 4 5 5 5 6
7 5 6 7 9 9 8 9 8 4 5 7 6 8 6 5 4 5 2 2 4 7 9 9 11 14 16 18 14 7 5 3 7 17 22 24 22 20 20 20 21 20 20 21 21 19 18 18 18 19 18 16 17 16 16 16 16 15 15 14 14 14 13 13 13 12 12 11 11 10 9 9 8 7 6 6 6 6 5 4 4 4 4 5 5 5
7 6 7 9 6 6 4 8 7 11 3 9 13 5 1 3 1 3 3 1 2 9 10 9 9 11 13 12 12 7 7 7 11 17 20 22 22 21 21 21 22 22 21 22 21 21 20 18 19 19 18 16 17 16 16 17 17 16 15 15 16 14 14 14 13 13 12 11 11 10 9 8 8 6 5 5 5 5 5 4 4 4 4 3 4 4
4 6 5 5 7 7 7 8 5 1 5 13 13 3 8 1 5 4 2 2 3 7 10 8 9 10 12 11 12 8 7 8 11 17 20 22 22 21 21 20 19 20 20 20 21 21 21 20 19 17 17 17 16 16 16 17 16 16 15 17 15 14 14 13 13 12 11 11 10 10 9 9 8 6 6 6 5 4 4 3 3 3 3 3 3 3
3 2 3 2 4 6 3 1 6 3 5 7 3 5 5 4 5 4 5 2 4 5 8 8 10 12 12 12 11 10 10 11 14 18 21 22 23 23 22 22 22 22 21 20 21 21 21 20 21 18 18 17 18 16 16 16 17 18 17 16 15 15 14 13 13 12 11 11 10 9 9 8 7 7 6 5 4 5 4 4 1 2 2 2 3 3
2 2 0 4 3 2 3 1 1 1 3 5 2 4 3 2 2 4 3 1 1 3 5 6 9 11 12 12 12 11 11 13 16 18 19 20 21 21 20 21 21 21 21 21 21 22 21 20 20 20 20 18 18 16 16 16 17 18 16 16 15 15 14 13 13 12 11 11 10 9 9 8 7 7 6 4 3 3 2 2 1 1 2 2 2 3
2 2 4 5 2 1 2 5 2 2 1 5 5 2 2 1 2 3 3 2 2 4 4 5 8 10 11 13 13 13 13 14 16 16 18 19 19 20 21 21 21 22 22 22 22 22 20 20 19 21 21 19 18 16 16 17 16 16 15 16 15 14 14 13 12 12 11 10 10 9 8 8 7 6 6 5 4 3 3 2 2 2 1 1 2 2
5 3 5 5 3 5 0 4 2 1 1 3 6 5 3 3 2 1 2 3 1 4 5 6 8 9 11 12 12 13 14 15 16 16 16 16 17 18 19 20 21 21 21 21 22 23 21 20 21 22 21 19 18 16 16 16 17 16 16 16 15 14 14 13 12 11 11 11 9 8 8 7 5 4 6 5 4 4 4 2 1 1 2 4 3 3
4 4 2 2 6 5 4 3 2 3 5 6 8 6 2 1 2 2 2 2 4 6 7 8 9 10 12 11 13 13 15 15 16 17 17 16 17 18 18 19 21 21 21 21 22 22 20 21 22 22 21 19 17 17 16 17 16 16 17 16 15 14 14 12 12 11 11 10 9 8 7 6 8 6 5 5 4 2 1 2 1 2 4 4 4 5
3 6 2 2 5 5 5 2 1 3 1 4 5 8 9 6 4 4 5 5 6 7 8 9 10 10 11 12 14 14 15 15 16 17 17 17 18 19 19 20 20 21 21 21 19 21 21 21 22 22 21 18 17 16 16 17 16 16 17 15 15 14 13 13 12 11 10 9 8 8 7 7 7 6 5 5 5 5 4 8 7 6 4 5 6 6
5 2 3 4 4 2 5 5 3 3 2 4 3 3 4 4 4 5 5 5 6 6 8 9 11 11 12 13 14 15 15 15 17 17 17 16 18 18 19 21 21 20 20 21 21 21 21 21 21 21 20 18 17 16 16 16 15 16 16 15 14 14 13 13 11 10 9 9 8 8 8 6 6 6 5 4 4 5 6 6 5 4 5 7 6 3
Wind_Direction
171 193 193 200 198 195 195 198 206 79 239 183 182 195 189 181 143 100 128 125 188 172 163 144 134 140 144 140 135 143 170 167 159 150 143 138 142 136 122 114 120 113 84 59 127 127 154 145 138 145 120 125 131 136 139 148 179 169 158 143 133 133 133 136 131 119 111 115 112 100 90 86 84 82 78 76 72 71 73 69 66 61 51 47 43 36
189 206 205 202 198 191 192 197 194 150 204 179 180 190 177 178 148 130 134 156 153 181 122 139 141 128 128 134 135 147 171 161 165 150 144 138 137 137 132 130 122 104 80 41 23 24 19 62 108 103 126 122 115 137 135 141 146 142 137 120 113 112 108 99 98 104 96 91 94 110 109 103 96 104 95 83 76 75 76 74 71 69 67 58 49 41
199 210 199 198 197 188 187 192 178 184 181 190 193 190 182 154 117 116 129 160 164 163 149 148 129 117 115 124 156 158 163 159 162 156 145 143 136 118 112 109 107 96 82 84 55 42 27 359 57 83 105 118 114 127 122 116 125 117 107 99 104 105 103 102 101 102 99 99 95 100 100 101 94 76 88 94 93 87 81 76 71 66 62 60 58 52
196 209 198 191 194 180 172 178 187 192 201 193 200 187 200 138 159 143 138 159 161 185 148 141 124 105 108 124 135 125 120 134 144 143 152 153 151 142 138 136 136 140 127 102 96 80 36 3 53 9 26 51 116 113 111 105 99 94 96 103 100 97 97 90 84 85 89 85 90 93 99 106 104 99 93 94 95 101 94 76 58 56 54 48 43 32
195 184 189 166 172 176 177 183 190 191 185 198 208 194 171 158 195 167 145 150 140 132 141 134 126 141 151 129 135 118 130 138 143 154 158 148 147 145 138 142 138 122 104 98 102 107 89 49 17 78 114 91 93 94 103 104 102 104 102 99 96 97 93 96 103 104 105 109 107 105 102 106 105 101 98 101 97 90 80 73 64 53 48 54 53 44
197 177 154 177 181 186 183 184 193 191 191 172 217 230 177 157 129 130 135 140 155 153 172 163 162 165 164 164 162 149 159 163 164 163 166 156 149 146 146 126 112 116 123 124 122 116 119 122 92 72 99 107 89 84 87 92 105 111 111 104 99 94 91 96 103 106 117 126 134 136 137 131 127 123 122 105 88 78 71 73 74 56 41 41 37 37
181 157 177 183 185 187 190 194 190 197 196 181 180 134 125 144 140 145 159 169 175 187 181 205 213 162 169 170 180 166 164 158 174 177 164 168 167 165 149 141 141 141 133 127 129 131 123 110 99 88 98 88 88 90 101 99 94 89 97 98 98 96 90 78 79 89 96 101 114 114 95 111 120 117 101 98 96 90 94 99 80 69 50 44 49 43
166 169 182 184 183 189 191 197 188 196 199 188 142 161 139 145 156 163 173 194 196 173 166 195 225 164 177 186 170 171 160 166 170 185 168 177 180 168 146 149 157 154 143 140 136 132 125 121 117 115 102 98 99 97 90 85 78 85 91 97 93 91 85 74 74 80 80 95 88 90 98 99 93 103 109 104 97 90 91 80 75 79 60 52 42 32
167 170 177 180 187 189 197 196 174 193 210 127 149 160 173 166 169 173 186 202 171 176 176 196 210 200 196 154 164 171 161 177 180 180 183 182 181 164 153 155 158 154 145 142 139 134 127 130 127 120 108 104 95 98 97 88 62 56 64 80 88 85 87 85 82 82 64 69 79 93 110 112 112 115 116 114 113 110 87 80 66 55 52 49 43 39
189 181 177 182 190 194 187 191 168 183 201 113 147 168 168 182 167 190 201 187 176 200 194 191 188 199 196 147 179 178 188 190 189 188 186 183 185 174 164 162 156 148 142 136 133 131 131 127 122 118 111 107 100 90 80 81 83 70 67 75 77 75 72 71 75 81 83 81 75 67 65 100 113 116 103 92 99 102 98 76 69 63 53 48 50 46
159 178 178 194 197 195 186 171 174 182 203 127 148 154 156 170 183 192 217 192 180 218 219 187 191 222 188 183 174 182 197 188 184 183 182 183 181 172 166 164 159 148 143 139 132 128 126 125 121 122 112 113 110 101 91 81 80 81 84 82 77 71 74 73 73 73 76 73 69 77 72 77 82 82 96 109 96 82 79 80 73 71 67 58 56 52
157 169 181 198 201 196 164 162 176 184 176 172 174 181 163 172 171 193 190 215 211 218 215 182 202 207 239 179 189 199 199 188 180 180 180 182 181 171 167 164 156 145 142 136 133 129 127 125 124 126 124 121 115 112 110 104 95 92 86 88 86 81 81 83 80 76 73 75 79 79 79 78 75 79 83 82 81 77 79 76 82 80 77 70 62 54
166 175 180 164 202 186 177 171 173 185 178 194 185 185 185 169 182 196 190 200 213 223 185 178 182 204 237 203 182 189 196 189 180 181 182 180 179 173 164 158 151 144 144 141 140 138 134 129 131 129 125 123 114 103 103 97 93 96 98 96 96 93 88 85 83 80 76 73 72 71 72 71 70 68 68 73 75 73 73 77 79 79 75 69 64 58
160 168 174 173 186 201 193 187 162 185 187 195 193 189 190 184 185 198 193 201 207 136 98 200 172 224 191 111 175 184 191 188 177 177 177 179 173 167 160 151 144 146 149 146 143 142 136 129 132 128 127 127 122 121 122 119 116 112 106 104 99 95 90 86 85 82 79 74 70 68 69 69 70 70 66 65 67 62 65 72 75 74 75 76 72 66
156 168 194 177 190 184 203 206 181 186 181 197 199 196 202 200 186 190 197 192 203 184 153 160 169 212 208 126 64 180 179 182 176 172 171 171 164 155 149 142 139 145 149 148 145 142 141 141 140 133 137 137 135 133 126 121 116 114 114 110 109 103 95 89 84 81 78 76 74 72 71 71 73 75 75 70 68 71 74 75 76 77 76 77 71 63
175 180 158 183 171 174 196 202 180 182 181 197 201 207 211 213 173 210 205 214 191 164 162 174 200 201 163 84 184 271 187 170 169 168 161 163 162 158 153 149 150 152 152 156 149 143 144 144 143 138 138 139 136 132 129 126 126 126 118 112 105 99 95 89 85 84 83 81 80 79 79 78 78 77 76 79 77 77 78 78 79 78 71 72 71 65
169 167 146 171 175 179 190 196 190 189 188 180 201 205 206 212 203 110 113 56 76 142 205 171 196 165 117 173 114 203 182 169 166 171 166 168 167 168 166 162 160 159 156 161 151 146 148 146 141 138 137 138 139 137 135 133 127 120 117 112 106 102 98 88 84 84 85 87 85 85 84 82 83 82 82 83 84 84 79 76 77 76 73 69 66 66
177 133 159 160 178 184 193 183 194 198 218 152 203 190 121 28 268 187 172 137 194 204 192 177 198 179 188 189 154 171 182 171 172 175 175 175 173 174 172 165 161 158 159 157 152 150 151 148 144 138 141 143 139 136 132 129 125 120 115 112 111 107 101 100 97 95 93 90 90 89 85 83 85 88 88 89 88 84 83 84 82 79 73 67 68 68
195 130 165 179 170 176 186 184 203 214 226 225 202 168 179 177 196 198 221 179 196 209 187 203 203 208 203 165 157 177 181 178 176 174 178 180 179 177 169 165 162 157 156 157 156 155 153 149 147 143 145 141 133 129 129 128 126 121 114 108 104 101 97 98 98 96 91 91 92 91 91 90 89 89 91 87 83 84 84 80 76 74 73 72 65 62
225 161 147 180 180 161 180 194 198 192 176 259 234 192 200 216 207 195 205 191 202 205 180 192 186 213 207 178 173 173 185 181 181 181 186 185 181 177 167 164 163 161 158 156 157 155 153 149 147 147 145 141 138 137 135 131 124 117 112 107 104 104 104 97 98 97 96 95 96 95 92 92 89 85 86 88 89 87 83 79 77 76 70 65 64 61
183 274 159 169 177 160 194 197 201 188 182 192 213 190 188 220 313 232 185 215 201 204 201 168 193 222 201 166 175 183 187 185 184 188 190 186 182 177 168 164 163 161 161 159 157 156 152 149 148 147 144 143 141 139 136 131 124 115 108 106 107 108 103 100 100 100 100 100 99 99 96 94 91 90 89 88 86 85 80 75 71 68 69 67 62 61
192 197 162 159 175 192 197 187 210 196 192 194 198 200 192 188 179 195 192 197 222 219 204 194 213 199 177 166 189 191 191 187 190 188 184 181 181 175 168 166 163 160 162 158 155 155 153 152 149 145 144 143 143 141 138 130 120 112 112 114 114 109 105 111 107 104 106 103 103 101 98 95 93 91 89 88 85 81 78 73 71 72 71 68 63 58
235 195 158 172 185 186 194 178 209 215 197 206 200 208 200 202 202 203 203 182 210 222 265 217 231 155 82 229 196 195 185 188 184 189 184 178 177 170 169 165 161 160 158 155 152 153 153 151 151 150 149 147 142 139 134 124 117 117 117 113 107 106 103 99 112 115 111 110 108 103 100 98 94 93 90 86 82 80 78 75 72 68 69 67 66 58
351 195 157 172 168 189 139 173 207 237 222 207 211 216 203 206 200 213 214 185 199 185 192 180 215 110 99 196 247 202 171 170 177 187 170 163 161 167 165 162 158 157 157 153 153 154 151 151 150 151 151 145 141 141 132 125 123 124 116 108 109 109 109 112 112 117 116 113 108 104 101 96 95 91 89 85 80 78 75 75 74 70 66 64 60 63
187 198 192 156 167 178 195 191 206 208 223 220 208 207 214 208 200 211 232 171 202 205 204 207 215 176 119 167 194 197 174 174 173 162 161 166 163 163 160 158 154 156 155 153 153 153 153 154 154 155 151 143 144 143 132 130 128 121 116 116 116 114 113 111 115 116 115 113 109 105 100 96 93 90 86 84 82 80 79 76 73 67 67 66 63 58
226 169 204 182 182 182 190 196 196 191 202 208 223 207 209 210 197 193 205 176 215 195 201 214 214 108 97 169 176 189 176 179 171 163 158 160 155 154 157 156 152 155 156 157 157 156 157 157 157 155 149 147 149 144 139 135 128 121 116 118 118 119 116 112 112 113 113 112 107 103 100 97 94 91 88 87 84 81 79 77 74 73 67 62 64 59
224 189 212 214 201 206 205 205 180 186 181 204 201 213 207 211 210 207 207 217 213 204 216 207 226 140 157 170 175 185 176 183 176 169 171 162 157 156 153 148 152 156 159 162 159 159 157 159 158 153 150 150 150 144 141 135 127 121 121 125 124 118 113 113 115 113 111 108 105 103 98 95 92 90 88 84 84 84 80 75 74 72 68 63 59 55
202 193 207 240 278 26 83 144 123 195 193 200 200 204 209 206 213 211 213 219 201 215 212 204 199 175 181 177 180 180 183 182 174 175 173 167 162 159 155 153 155 159 164 163 160 160 161 158 154 154 154 151 148 139 136 130 124 124 127 127 126 121 116 116 117 116 113 111 107 103 101 98 95 90 87 87 87 84 82 80 77 71 67 61 54 52
196 198 186 215 207 125 54 69 113 192 217 201 207 205 207 208 212 215 215 223 217 211 214 165 180 207 188 186 183 184 185 187 183 178 172 162 156 151 152 155 162 165 165 162 162 158 158 156 155 156 156 152 143 135 129 127 124 125 129 131 127 126 121 120 120 118 115 112 108 104 103 101 97 96 95 94 91 87 83 80 73 70 66 61 60 51
215 210 174 207 211 193 127 108 94 199 199 228 224 217 212 211 212 213 214 217 219 208 233 174 190 205 201 185 190 190 183 172 176 174 167 163 165 161 160 164 165 165 166 165 161 158 159 157 156 156 155 150 139 133 130 127 131 135 135 134 132 130 125 125 123 120 119 115 113 113 110 107 105 102 99 96 93 89 87 82 76 71 66 61 58 55
231 149 151 195 216 204 171 166 214 235 240 225 221 229 225 218 215 213 217 217 213 221 225 212 191 212 119 179 180 166 159 163 172 179 178 173 168 169 171 170 166 166 167 166 166 166 164 160 156 148 148 144 137 133 130 134 135 135 135 134 135 132 131 129 127 124 123 120 120 118 116 111 107 105 100 98 97 95 89 82 78 72 68 63 58 56
215 156 183 207 220 211 185 212 211 239 253 248 241 223 221 222 221 212 213 209 208 211 208 220 219 219 145 152 149 157 166 176 184 184 179 176 174 172 173 174 171 166 168 167 164 162 163 160 153 152 149 141 137 134 135 138 139 138 136 136 136 136 134 132 131 129 127 124 124 120 115 111 109 104 104 103 96 93 89 85 80 74 69 66 63 58
197 205 191 195 214 217 169 186 215 240 242 240 235 229 219 219 226 218 213 183 203 213 210 210 219 227 161 158 159 166 179 185 187 188 185 182 179 175 174 170 166 167 166 163 164 168 169 163 155 152 144 139 138 138 142 141 141 138 137 136 137 136 135 136 136 133 127 122 117 116 119 119 115 110 104 99 97 93 90 85 80 75 72 67 65 63
190 210 208 189 210 209 164 174 173 234 229 230 56 17 332 214 186 192 196 196 207 210 225 224 233 189 146 165 173 172 180 190 193 193 186 181 176 175 173 174 174 173 171 167 170 170 167 154 147 143 141 137 136 138 141 142 136 133 134 134 137 139 138 135 129 126 128 131 134 133 129 121 118 117 111 106 100 96 91 86 79 76 71 73 70 65
190 197 223 185 212 210 165 180 217 229 231 68 112 74 56 8 214 216 210 207 204 204 202 197 174 158 169 176 184 182 188 187 181 181 189 187 181 179 177 176 173 173 174 173 172 170 160 150 144 139 136 135 137 141 146 142 136 136 137 138 139 139 137 136 134 136 144 144 140 136 131 129 126 118 112 105 100 96 91 85 81 73 70 69 65 63
185 195 200 199 224 201 183 203 220 226 76 121 84 145 81 84 171 173 213 204 202 202 203 215 210 202 184 171 164 165 160 168 176 187 189 185 182 179 177 177 179 179 176 173 168 161 153 150 146 144 141 138 141 149 150 144 142 141 138 140 140 142 142 143 146 150 148 141 139 135 132 129 126 122 117 111 106 100 92 87 81 78 73 70 70 68
194 194 190 203 202 220 210 212 220 54 215 160 180 188 186 175 175 183 200 210 201 203 200 203 189 174 160 154 142 140 147 155 176 186 192 186 183 184 178 178 177 173 168 164 160 157 154 148 144 142 139 143 150 153 152 147 146 143 142 145 146 149 149 149 146 144 144 143 138 135 135 134 130 123 119 114 111 103 96 90 84 78 74 72 68 67
215 214 183 211 185 231 227 214 220 222 246 210 188 124 179 48 181 241 268 242 177 191 190 190 179 167 159 152 148 148 148 157 186 201 195 193 187 184 185 176 169 165 162 157 153 149 144 141 139 141 143 146 153 158 153 151 149 148 149 149 152 151 151 149 146 145 145 140 137 136 135 134 130 127 122 118 111 107 102 96 89 82 68 66 68 66
215 230 216 213 182 194 226 238 222 233 229 218 141 145 174 181 204 209 211 232 174 183 184 185 178 170 166 158 154 151 157 179 208 203 189 187 186 186 179 174 166 161 156 152 148 143 141 143 143 143 144 149 154 158 154 152 151 152 152 153 154 153 151 150 144 145 141 139 138 136 135 132 129 126 124 118 112 108 104 95 87 85 81 78 75 71
195 203 203 224 222 202 221 222 232 223 212 124 131 136 149 170 182 219 225 216 116 187 178 181 177 172 169 163 160 167 174 196 214 201 174 183 184 178 179 168 159 155 154 152 148 143 141 139 137 143 149 154 155 155 154 153 155 154 153 155 154 153 150 146 145 140 137 137 136 134 131 130 128 127 125 121 117 112 103 96 90 80 75 68 64 64
187 195 204 218 215 202 216 233 245 216 100 99 113 128 133 146 225 226 225 98 149 184 190 189 181 172 162 162 168 184 199 38 9 127 154 169 172 175 172 162 155 151 149 147 139 134 137 145 149 153 154 154 155 156 154 156 155 155 155 155 155 151 147 144 141 139 138 136 136 136 133 132 132 129 126 122 120 115 106 95 89 86 82 77 65 60
188 194 204 218 222 219 205 232 233 251 74 107 118 137 149 165 206 234 42 55 153 162 174 192 186 176 172 173 178 184 166 75 125 139 156 168 173 169 165 155 147 148 147 137 134 141 145 148 152 152 152 155 158 157 156 156 156 157 155 156 153 148 144 143 141 140 139 140 138 134 134 133 130 132 128 125 127 122 110 103 94 85 77 68 70 64
182 197 197 200 214 229 216 227 228 235 162 171 130 144 224 235 255 90 164 147 204 150 164 176 187 175 177 176 181 175 135 127 139 153 156 164 165 165 164 159 152 152 147 140 145 146 147 150 152 154 154 158 160 159 159 158 157 156 156 154 149 146 146 143 144 144 144 140 136 136 135 135 139 139 137 138 134 125 122 124 109 99 83 77 80 67
78 228 213 213 207 227 211 217 226 357 108 164 158 179 183 353 11 345 304 127 177 155 162 168 175 175 181 180 177 168 160 152 164 157 160 160 159 161 164 158 148 142 136 141 145 148 151 152 154 154 155 158 161 162 160 159 157 157 158 150 148 147 145 147 147 147 143 142 141 142 142 144 147 142 145 143 142 133 128 114 111 98 75 61 48 55
129 289 5 272 146 233 263 318 53 29 138 158 31 48 9 29 6 350 331 23 161 161 162 162 164 170 175 181 172 178 177 176 166 158 159 166 169 167 162 155 149 144 144 148 152 152 155 154 154 154 158 161 163 163 161 161 158 159 157 150 150 149 151 150 149 147 148 150 149 150 150 152 149 150 146 148 156 146 135 128 171 116 100 88 65 47
42 21 338 261 268 334 259 75 333 330 193 180 130 31 26 10 20 331 319 164 117 159 169 152 156 164 172 174 172 182 186 172 168 162 163 167 164 158 149 146 145 146 150 151 153 156 156 154 154 156 159 164 165 163 163 162 161 162 156 153 154 155 153 153 152 152 155 154 154 159 155 158 154 156 150 162 155 150 121 119 129 86 85 68 59 52
151 166 217 244 59 276 211 129 176 86 140 194 183 108 39 282 335 330 323 346 107 148 145 125 154 164 161 164 175 175 179 173 168 160 166 168 160 155 156 154 151 153 156 158 156 155 155 157 158 159 160 164 166 165 164 163 164 164 156 157 158 158 157 156 156 157 158 156 158 162 160 158 166 158 159 174 168 149 147 148 135 132 144 97 57 50
160 162 253 244 249 236 17 86 88 174 258 225 205 193 188 161 173 252 310 338 89 136 132 136 149 154 160 173 175 175 172 176 168 162 160 161 159 159 157 154 154 156 158 158 156 159 157 159 161 162 163 164 166 166 166 166 167 163 159 161 162 162 161 161 163 164 163 162 161 165 166 171 114 180 160 173 168 162 151 137 123 88 53 34 26 6
92 185 245 190 236 238 269 225 149 178 206 206 202 215 186 136 169 173 213 201 163 156 152 148 166 164 173 175 172 168 166 174 169 163 161 160 161 160 156 154 157 158 158 158 159 160 160 164 165 165 165 163 166 167 168 168 168 164 162 165 164 165 164 164 166 172 167 169 167 167 173 171 166 198 166 155 172 160 145 128 127 99 97 64 18 21
200 238 182 236 242 239 241 143 69 243 180 169 199 205 205 202 214 191 180 184 178 166 162 165 174 177 181 176 173 173 171 170 166 164 164 163 162 159 153 154 159 159 159 157 157 162 162 166 167 166 165 163 167 169 169 169 169 165 166 167 166 167 167 166 171 178 172 176 174 169 179 181 172 181 178 165 169 160 126 57 37 5 1 94 83 57
242 293 218 238 250 252 46 29 8 320 333 73 67 148 191 195 212 214 200 186 178 174 172 169 168 174 182 180 182 178 173 169 167 166 164 164 163 158 157 159 160 160 157 157 159 165 167 168 167 166 164 164 166 170 170 170 170 166 169 169 169 170 170 170 174 178 174 177 181 174 180 182 176 173 178 172 172 169 156 157 133 73 53 44 105 123